Fremont, NE

12:32 AM CDT on July 21, 2017 (GMT -0500)
Fremont Municipal

Weather History for KFET - November, 2012

Change the Weather History Date:

Tuesday, November 6, 2012

  Actual Average Record
Temperature  
Mean Temperature 44 °F -  
Max Temperature 57 °F 53 °F 77 °F (1980)
Min Temperature 32 °F 31 °F 7 °F (1959)
Degree Days  
Heating Degree Days 20    
Moisture  
Dew Point 34 °F    
Average Humidity 68    
Maximum Humidity 95    
Minimum Humidity 36    
Precipitation  
Precipitation 0.00 in - - ()
Sea Level Pressure  
Sea Level Pressure 30.02 in    
Wind  
Wind Speed 14 mph (WNW)    
Max Wind Speed 29 mph    
Max Gust Speed 39 mph    
Visibility 10 miles    
Events      
Averages and records for this station are not official NWS values.
T = Trace of Precipitation, MM = Missing Value Source: NWS Daily Summary

Daily Weather History Graph

Daily Weather History Graph

Search for Another Location

Airport or City:

Trip Planner

Search our weather history database for the weather conditions in past years. The results will help you decide how hot, cold, wet, or windy it might be!

Date:

Astronomy

Nov. 06, 2012 Rise Set
Actual Time 7:04 AM CST 5:14 PM CST
Civil Twilight 6:35 AM CST 5:43 PM CST
Nautical Twilight 6:02 AM CST 6:16 PM CST
Astronomical Twilight 5:29 AM CST 6:49 PM CST
Moon 11:55 PM CST (11/6) 12:56 PM CST (11/6)
Length of Visible Light 11h 08m
Length of Day
10h 10m
Waning Gibbous, 53% of the Moon is Illuminated
Nov 6
Waning Gibbous
Nov 6
Last Quarter
Nov 13
New
Nov 20
First Quarter
Nov 28
Full

Hourly Weather History & Observations

Time (CST) Temp. Windchill Dew Point Humidity Pressure Visibility Wind Dir Wind Speed Gust Speed Precip Events Conditions
12:15 AM 40.1 °F 33.2 °F 37.4 °F 90% 30.00 in 10.0 mi SSE 11.5 mph - N/A   Scattered Clouds
12:35 AM 39.4 °F 33.8 °F 37.4 °F 93% 30.00 in 10.0 mi South 8.1 mph 11.5 mph N/A   Clear
12:55 AM 39.4 °F 35.2 °F 37.4 °F 93% 30.02 in 7.0 mi South 5.8 mph - N/A   Mostly Cloudy
1:15 AM 39.7 °F 34.9 °F 37.8 °F 93% 30.02 in 7.0 mi South 6.9 mph - N/A   Overcast
1:35 AM 39.7 °F 32.7 °F 37.8 °F 93% 30.01 in 7.0 mi South 11.5 mph - N/A   Overcast
1:55 AM 40.1 °F 33.6 °F 37.9 °F 92% 30.01 in 7.0 mi SSW 10.4 mph 17.3 mph N/A   Overcast
2:15 AM 39.9 °F 32.5 °F 37.9 °F 93% 29.98 in 7.0 mi South 12.7 mph - N/A   Overcast
2:35 AM 40.1 °F 32.4 °F 37.9 °F 92% 29.97 in 7.0 mi South 13.8 mph 19.6 mph N/A   Scattered Clouds
2:55 AM 40.1 °F 34.1 °F 37.8 °F 91% 29.97 in 7.0 mi SSW 9.2 mph 17.3 mph N/A   Mostly Cloudy
3:15 AM 40.1 °F 33.6 °F 37.8 °F 91% 29.96 in 7.0 mi SSW 10.4 mph - N/A   Mostly Cloudy
3:35 AM 39.7 °F 31.9 °F 37.6 °F 92% 29.95 in 7.0 mi SSW 13.8 mph 17.3 mph N/A   Scattered Clouds
3:55 AM 39.6 °F 32.1 °F 37.4 °F 92% 29.94 in 7.0 mi SSW 12.7 mph - N/A   Clear
4:15 AM 39.7 °F 33.2 °F 37.4 °F 91% 29.94 in 7.0 mi SW 10.4 mph - N/A   Clear
4:35 AM 39.6 °F 33.5 °F 37.0 °F 91% 29.94 in 10.0 mi SSW 9.2 mph - N/A   Clear
4:55 AM 40.3 °F 34.4 °F 36.9 °F 88% 29.94 in 10.0 mi SW 9.2 mph - N/A   Clear
5:15 AM 39.7 °F 33.2 °F 36.7 °F 89% 29.93 in 10.0 mi SW 10.4 mph - N/A   Clear
5:35 AM 39.6 °F 34.7 °F 36.9 °F 90% 29.95 in 10.0 mi West 6.9 mph - N/A   Clear
5:55 AM 38.3 °F 30.5 °F 36.7 °F 94% 29.96 in 10.0 mi West 12.7 mph - N/A   Scattered Clouds
6:15 AM 39.6 °F 31.7 °F 37.4 °F 92% 29.96 in 10.0 mi West 13.8 mph - N/A   Scattered Clouds
6:35 AM 38.7 °F 30.1 °F 37.2 °F 95% 29.96 in 10.0 mi West 15.0 mph - N/A   Clear
6:55 AM 39.4 °F 30.7 °F 37.8 °F 94% 29.97 in 10.0 mi West 16.1 mph - N/A   Clear
7:15 AM 40.6 °F 32.3 °F 39.4 °F 95% 29.99 in 10.0 mi WNW 16.1 mph 21.9 mph N/A   Clear
7:35 AM 42.8 °F 34.8 °F 38.8 °F 86% 30.01 in 10.0 mi NW 17.3 mph - N/A   Clear
7:55 AM 43.2 °F 35.3 °F 38.3 °F 83% 30.01 in 10.0 mi NW 17.3 mph 23.0 mph N/A   Clear
8:15 AM 44.2 °F 36.4 °F 37.8 °F 78% 30.03 in 10.0 mi NW 18.4 mph 24.2 mph N/A   Clear
8:35 AM 45.5 °F 38.3 °F 37.6 °F 74% 30.04 in 10.0 mi NW 17.3 mph 23.0 mph N/A   Clear
8:55 AM 46.8 °F - 36.9 °F 68% 30.04 in 10.0 mi WNW 23.0 mph 27.6 mph N/A   Clear
9:15 AM 48.2 °F - 36.5 °F 64% 30.04 in 10.0 mi WNW 20.7 mph 27.6 mph N/A   Clear
9:35 AM 49.1 °F - 35.1 °F 58% 30.04 in 10.0 mi NW 24.2 mph 31.1 mph N/A   Clear
9:55 AM 50.2 °F - 34.3 °F 55% 30.04 in 10.0 mi WNW 26.5 mph 32.2 mph N/A   Clear
10:15 AM 51.1 °F - 34.3 °F 53% 30.04 in 10.0 mi NW 24.2 mph 29.9 mph N/A   Clear
10:35 AM 52.0 °F - 34.0 °F 50% 30.04 in 10.0 mi NW 25.3 mph - N/A   Clear
10:55 AM 53.2 °F - 32.5 °F 45% 30.04 in 10.0 mi WNW 24.2 mph 29.9 mph N/A   Clear
11:15 AM 54.3 °F - 32.2 °F 43% 30.04 in 10.0 mi NW 25.3 mph 29.9 mph N/A   Clear
11:35 AM 54.7 °F - 31.6 °F 42% 30.04 in 10.0 mi NW 27.6 mph 35.7 mph N/A   Clear
11:55 AM 55.8 °F - 30.6 °F 38% 30.03 in 10.0 mi NW 23.0 mph 34.5 mph N/A   Clear
12:15 PM 56.1 °F - 30.4 °F 38% 30.02 in 10.0 mi NW 24.2 mph 38.0 mph N/A   Clear
12:35 PM 56.8 °F - 30.4 °F 37% 30.01 in 10.0 mi NW 28.8 mph 36.8 mph N/A   Clear
12:55 PM 56.7 °F - 30.2 °F 37% 30.01 in 10.0 mi WNW 26.5 mph 34.5 mph N/A   Clear
1:15 PM 56.8 °F - 30.7 °F 37% 30.01 in 10.0 mi NW 26.5 mph 36.8 mph N/A   Clear
1:35 PM 57.2 °F - 30.2 °F 36% 30.01 in 10.0 mi NW 28.8 mph 35.7 mph N/A   Clear
1:55 PM 57.2 °F - 30.6 °F 36% 30.01 in 10.0 mi NW 26.5 mph 39.1 mph N/A   Clear
2:15 PM 57.6 °F - 30.9 °F 36% 30.01 in 10.0 mi NW 28.8 mph 38.0 mph N/A   Clear
2:35 PM 57.6 °F - 30.9 °F 36% 30.00 in 10.0 mi NW 25.3 mph 35.7 mph N/A   Clear
2:55 PM 57.2 °F - 30.2 °F 36% 30.01 in 10.0 mi NW 28.8 mph 35.7 mph N/A   Clear
3:15 PM 57.2 °F - 30.4 °F 36% 30.01 in 10.0 mi NW 27.6 mph 33.4 mph N/A   Clear
3:35 PM 56.7 °F - 30.9 °F 38% 30.01 in 10.0 mi NNW 23.0 mph 31.1 mph N/A   Clear
3:55 PM 56.1 °F - 31.6 °F 39% 30.02 in 10.0 mi NW 21.9 mph 29.9 mph N/A   Clear
4:15 PM 55.4 °F - 31.5 °F 40% 30.03 in 10.0 mi NW 21.9 mph 31.1 mph N/A   Clear
4:35 PM 54.5 °F - 31.3 °F 41% 30.03 in 10.0 mi NW 19.6 mph 29.9 mph N/A   Clear
4:55 PM 53.4 °F - 31.3 °F 43% 30.04 in 10.0 mi NW 16.1 mph 21.9 mph N/A   Clear
5:15 PM 52.3 °F - 31.1 °F 44% 30.04 in 10.0 mi NW 17.3 mph 24.2 mph N/A   Clear
5:35 PM 50.5 °F - 31.3 °F 48% 30.04 in 10.0 mi NW 15.0 mph 19.6 mph N/A   Clear
5:55 PM 50.0 °F - 31.5 °F 49% 30.05 in 10.0 mi NW 15.0 mph - N/A   Clear
6:15 PM 47.8 °F - 31.6 °F 53% 30.06 in 10.0 mi WNW 11.5 mph - N/A   Clear
6:35 PM 47.3 °F - 31.6 °F 55% 30.06 in 10.0 mi WNW 11.5 mph - N/A   Clear
6:55 PM 46.6 °F - 31.6 °F 56% 30.06 in 10.0 mi WNW 9.2 mph - N/A   Clear
7:15 PM 43.3 °F 38.6 °F 31.5 °F 63% 30.07 in 10.0 mi West 8.1 mph - N/A   Clear
7:35 PM 41.9 °F 37.5 °F 31.5 °F 66% 30.07 in 10.0 mi West 6.9 mph - N/A   Clear
7:55 PM 38.8 °F 33.8 °F 31.1 °F 74% 30.06 in 10.0 mi West 6.9 mph - N/A   Clear
8:15 PM 39.6 °F 35.4 °F 31.1 °F 72% 30.07 in 10.0 mi West 5.8 mph - N/A   Clear
8:35 PM 38.8 °F 35.4 °F 30.9 °F 73% 30.07 in 10.0 mi West 4.6 mph - N/A   Clear
8:55 PM 38.5 °F 31.6 °F 31.1 °F 75% 30.07 in 10.0 mi West 10.4 mph - N/A   Clear
9:15 PM 38.5 °F 33.4 °F 30.9 °F 74% 30.08 in 10.0 mi West 6.9 mph - N/A   Clear
9:35 PM 37.0 °F 30.4 °F 30.9 °F 79% 30.08 in 10.0 mi West 9.2 mph - N/A   Clear
9:55 PM 37.2 °F 31.2 °F 30.6 °F 77% 30.08 in 10.0 mi West 8.1 mph - N/A   Clear
10:15 PM 36.9 °F 32.2 °F 30.2 °F 77% 30.08 in 10.0 mi WNW 5.8 mph - N/A   Clear
10:35 PM 33.3 °F 28.9 °F 29.1 °F 85% 30.08 in 10.0 mi West 4.6 mph - N/A   Clear
10:55 PM 33.3 °F 30.2 °F 29.1 °F 85% 30.08 in 10.0 mi WNW 3.5 mph - N/A   Clear
11:15 PM 32.0 °F 25.6 °F 28.2 °F 86% 30.09 in 10.0 mi West 6.9 mph - N/A   Clear
11:35 PM 34.2 °F 26.8 °F 29.8 °F 84% 30.09 in 10.0 mi West 9.2 mph - N/A   Clear
11:55 PM 35.6 °F 29.9 °F 30.2 °F 81% 30.09 in 10.0 mi West 6.9 mph - N/A   Clear